Tracking 22779 objects as of 12-Apr-2021
HD Live streaming from Space Station
objects crossing your sky now

WESTFORD NEEDLES

Track WESTFORD NEEDLES now!
10-day predictions
WESTFORD NEEDLES is classified as:


NORAD ID: 2362
Int'l Code: 1963-014M
Perigee: 1,265.5 km
Apogee: 5,803.2 km
Inclination: 85.7 °
Period: 163.5 minutes
Semi major axis: 9905 km
RCS: 0.2493 m2 (medium)
Launch date: May 9, 1963
Source: United States (US)
Launch site: AIR FORCE WESTERN TEST RANGE (AFWTR)
aabbcc
Your satellite tracking list
Your tracking list is empty




NASA's NSSDC Master Catalog

Two Line Element Set (TLE):
1 02362U 63014M   21101.85438455  .00000216  00000-0  47885-2 0  9997
2 02362  85.7438 320.6629 2290525 100.2356 286.2681  8.80633742839835
Source of the keplerian elements: AFSPC